This demonstration page uses our WeatherBlox Daily Observations layout. Learn more.

Left ArrowRight Arrow

39.92423, -83.80882

Hourly Observations for May 31, 2018

Temp ( °F °C ) Dew Point ( °F °C ) Humidity (%) Winds ( mph kmh ) Pressure ( in mb ) Visibility ( mi km ) Precip ( " mm )
12:37 am 00:37 Cloudy with Light Rain 72 22 70 21 94 94 SSW 6 9 29.77 1008 9 14.48406 0.03 0.762
12:49 am 00:49 Cloudy 72 22 70 21 94 94 S 7 11 29.77 1008 10 16.0934 0.03 0.762
12:56 am 00:56 Cloudy with Light Rain 71 21.7 70 21.1 96 96 S 8 13 29.76 1008 10 16.0934 0.03 0.762
1:56 am 01:56 Clear 71 21.7 70 21.1 96 96 S 7 11 29.76 1008 10 16.0934 0 0.0254
2:47 am 02:47 Mostly Cloudy 72 22 70 21 94 94 SW 13 20 29.77 1008 10 16.0934 0 0
2:56 am 02:56 Cloudy 71 21.7 70 21.1 96 96 SSW 10 17 29.77 1008 10 16.0934 0 0
3:14 am 03:14 Mostly Cloudy 72 22 70 21 94 94 SSW 9 15 29.74 1007 10 16.0934 0 0
3:56 am 03:56 Mostly Cloudy 71 21.7 69 20.6 94 94 SSW 8 13 29.76 1008 10 16.0934 0 0
4:53 am 04:53 Cloudy 72 22 70 21 94 94 SSW 10 17 29.77 1008 9 14.48406 0 0
4:56 am 04:56 Cloudy 71 21.7 70 21.1 96 96 SSW 9 15 29.78 1008 9 14.48406 0 0
5:06 am 05:06 Cloudy 72 22 70 21 94 94 SSW 8 13 29.77 1008 8 12.87472 0 0
5:18 am 05:18 Cloudy 72 22 70 21 94 94 SSW 8 13 29.77 1008 7 11.26538 0 0
5:56 am 05:56 Mostly Cloudy 71 21.7 70 21.1 96 96 SSW 12 19 29.78 1009 7 11.26538 0 0
6:07 am 06:07 Mostly Cloudy with Mist and Fog 72 22 70 21 94 94 SSW 9 15 29.77 1008 4 6.43736 0 0
6:18 am 06:18 Mostly Cloudy with Mist and Fog 72 22 72 22 100 100 SSW 9 15 29.77 1008 4 6.43736 0 0
6:47 am 06:47 Cloudy with Mist and Fog 72 22 72 22 100 100 SSW 7 11 29.8 1009 4 6.43736 0 0
6:56 am 06:56 Cloudy with Mist and Fog 71 21.7 71 21.7 100 100 SSW 7 11 29.8 1009 4 6.43736 0 0
7:03 am 07:03 Cloudy with Mist and Fog 72 22 72 22 100 100 SSW 8 13 29.8 1009 4 6.43736 0 0
7:56 am 07:56 Cloudy with Mist and Fog 72 22.2 71 21.7 97 97 SSW 10 17 29.81 1010 4 6.43736 0 0
8:56 am 08:56 Cloudy with Mist and Fog 73 22.8 71 21.7 94 94 SW 12 19 29.83 1010 5 8.0467 0 0
9:24 am 09:24 Cloudy with Mist and Fog 73 23 72 22 94 94 SSW 12 19 29.83 1010 6 9.65604 0 0
9:43 am 09:43 Cloudy with Mist and Fog 73 23 72 22 94 94 SSW 7 11 29.83 1010 6 9.65604 0 0
9:56 am 09:56 Cloudy with Mist and Fog 73 22.8 71 21.7 94 94 SW 9 15 29.84 1011 6 9.65604 0 0
10:03 am 10:03 Cloudy with Mist and Fog 73 23 72 22 94 94 SW 12 19 29.83 1010 6 9.65604 0 0
10:14 am 10:14 Cloudy 73 23 72 22 94 94 SSW 9 15 29.83 1010 9 14.48406 0 0
10:36 am 10:36 Cloudy 75 24 72 22 89 89 SW 12 19 29.8 1009 9 14.48406 0 0
10:56 am 10:56 Cloudy 76 24.4 72 22.2 88 88 SSW 7 11 29.84 1011 10 16.0934 0 0
11:29 am 11:29 Mostly Cloudy 79 26 72 22 79 79 S 7 11 29.8 1009 10 16.0934 0 0
11:41 am 11:41 Cloudy 79 26 72 22 79 79 SSW 7 11 29.8 1009 10 16.0934 0 0
11:49 am 11:49 Mostly Cloudy 79 26 72 22 79 79 S 7 11 29.8 1009 10 16.0934 0 0
11:56 am 11:56 Mostly Cloudy 79 26.1 73 22.8 82 82 SSW 10 17 29.83 1010 10 16.0934 0 0
12:56 pm 12:56 Partly Cloudy 82 27.8 73 22.8 74 74 SW 12 19 29.82 1010 10 16.0934 0 0
1:56 pm 13:56 Partly Cloudy 83 28.3 72 22.2 70 70 SW 13 20 29.81 1010 10 16.0934 0 0
2:56 pm 14:56 Partly Cloudy 85 29.4 72 22.2 65 65 WSW 14 22 29.8 1009 10 16.0934 0 0
3:56 pm 15:56 Partly Cloudy 85 29.4 72 22.2 65 65 SW 14 22 29.78 1009 10 16.0934 0 0
4:56 pm 16:56 Mostly Sunny 85 29.4 70 21.1 61 61 SW 14 22 29.77 1008 10 16.0934 0 0
5:56 pm 17:56 Partly Cloudy 77 25 68 20 74 74 W 20 31 29.8 1009 10 16.0934 0 0
6:56 pm 18:56 Sunny 74 23.3 70 21.1 88 88 undefined N/A 29.78 1008 10 16.0934 0 0.0254
7:56 pm 19:56 Sunny 73 22.8 68 20 84 84 SSW 9 15 29.76 1008 10 16.0934 0 0
8:56 pm 20:56 Sunny 71 21.7 66 18.9 84 84 SW 8 13 29.8 1009 10 16.0934 0 0
9:56 pm 21:56 Clear 70 21.1 66 18.9 87 87 VRB 3 6 29.82 1010 10 16.0934 0.01 0.254
10:56 pm 22:56 Clear 69 20.6 66 18.9 90 90 S 6 9 29.85 1011 10 16.0934 0 0
11:56 pm 23:56 Mostly Cloudy 68 20 65 18.3 90 90 SSW 8 13 29.85 1011 10 16.0934 0 0

Powered by AerisWeather